sat.trackr.live / text

‹ back to catalog

SHIJIAN-23 (SJ-23)

NORAD 55131 · 2023-002A

PAYLOAD ACTIVE UNKNOWN

§ Identity

Operator
Country
PRC
Launch date
2023-01-08
Launch site
WSC
Launch vehicle
Mass (kg)
RCS (m²)

Purposes: comms

External: N2YO · Heavens-Above · Gunter

§ Orbital elements

Epoch: 2026-05-24T18:22:57.325728Z

Period
1,438.70 min
Inclination
3.6597°
Eccentricity
0.0004187
Mean motion
1.00090653 rev/d
Perigee alt
35,819.8 km
Apogee alt
35,855.1 km
Semi-major
42,215.6 km
B*
0.0000e+0
RAAN
78.6004°
Arg perigee
274.0878°
Mean anomaly
328.8414°
Rev number
1,227

§ Raw data

SHIJIAN-23 (SJ-23)1 55131U 23002A   26144.76594127 -.00000121  00000+0  00000+0 0  99932 55131   3.6597  78.6004 0004187 274.0878 328.8414  1.00090653 12274

JSON: /api/v1/satellites/55131 · /tle

For live sub-satellite position, see the globe view (requires WebGL).

§ Visibility from observer

Set your observer location to see the next 7 days of passes ≥ 10°. The values pass through the URL so the page stays shareable.

No JS? Fill the form by hand. The geolocation button needs JavaScript.